Regional Weather Roundup
Issued by NWS

Home | Current Version | Previous Version | Text Only | Print | Product List | Glossary Off
Versions: 1 2 3 4 5 6 7 8 9 10 11 12 13 14 15 16 17 18 19 20 21 22 23 24 25 26 27 28 29 30 31 32 33 34 35 36 37 38 39 40 41 42 43 44 45 46 47 48 49 50

000
ASUS43 KMKX 240621
RWRWI

WISCONSIN REGIONAL WEATHER ROUNDUP
NATIONAL WEATHER SERVICE MILWAUKEE/SULLIVAN WI
1200 AM CST MON NOV 24 2014

NOTE: "FAIR" INDICATES FEW OR NO CLOUDS BELOW 12,000 FEET WITH NO
SIGNIFICANT WEATHER AND/OR OBSTRUCTIONS TO VISIBILITY.

WIZ001-002-006>008-014>016-023>028-240700-
NORTHWEST WISCONSIN

CITY           SKY/WX    TMP DP  RH WIND       PRES   REMARKS
SUPERIOR ARPT  DRIZZLE   36  34  92 N7        29.29F WCI  31
6HR MIN TEMP:  35; 6HR MAX TEMP:  37; 6HR PCP:  0.01;

ASHLAND        MIX PCPN  37  36  96 NW6       29.25F FOG     WCI  32
6HR MIN TEMP:  36; 6HR MAX TEMP:  40; 6HR PCP:  0.04;

HAYWARD        RAIN      36  34  92 NW7       29.23F FOG     WCI  30
6HR MIN TEMP:  36; 6HR MAX TEMP:  40; 6HR PCP:  0.13;

SIREN          LGT RAIN  36  35  96 NW8       29.29F WCI  29
6HR MIN TEMP:  36; 6HR MAX TEMP:  38; 6HR PCP:  0.06;

CUMBERLAND     RAIN      32  32 100 NW14      29.24F WCI  22
RICE LAKE      RAIN      36  35  98 NW6       29.25F WCI  31
6HR MIN TEMP:  36; 6HR MAX TEMP:  41; 6HR PCP:  0.12;

CHETEK         LGT RAIN  35  35 100 NW7       29.22F WCI  29
6HR MIN TEMP:  35; 6HR MAX TEMP:  41; 6HR PCP:  0.11;

LADYSMITH      CLOUDY    39  39  98 N14       29.20F FOG     WCI  31
6HR MIN TEMP:  39; 6HR MAX TEMP:  44; 6HR PCP:  0.04;

EAU CLAIRE     CLOUDY    38  36  92 NW9       29.20F FOG     WCI  31
6HR MIN TEMP:  38; 6HR MAX TEMP:  48; 6HR PCP:  0.07;

MENOMONIE      DRIZZLE   37  37  99 W10       29.24F WCI  30
NEW RICHMOND   DRIZZLE   36  36 100 NW12G17   29.29F WCI  27
6HR MIN TEMP:  36; 6HR MAX TEMP:  37; 6HR PCP:  0.05;

OSCEOLA        DRIZZLE   37  37 100 NW10      29.33F WCI  29
6HR MIN TEMP:  37; 6HR MAX TEMP:  37; 6HR PCP:  0.02;

$$

WIZ003>005-009-010-017-018-240700-
NORTH CENTRAL WISCONSIN

CITY           SKY/WX    TMP DP  RH WIND       PRES   REMARKS
MANITOWISH WTR DRIZZLE   40  40 100 N3        29.17F
6HR MIN TEMP:  35; 6HR MAX TEMP:  42;

ARBOR VITAE    RAIN      39  38  97 CALM      29.16F VSB 3/4
6HR MIN TEMP:  39; 6HR MAX TEMP:  43;

WOODRUFF       RAIN      39  38  97 CALM      29.16F VSB 3/4
6HR MIN TEMP:  39; 6HR MAX TEMP:  43;

RHINELANDER    LGT RAIN  37  37 100 CALM      29.16F VSB 1/4
6HR MIN TEMP:  37; 6HR MAX TEMP:  42; 6HR PCP:  0.08;

EAGLE RIVER    LGT RAIN  38  38 100 CALM      29.16F VSB 1/4
6HR MIN TEMP:  37; 6HR MAX TEMP:  42; 6HR PCP:  0.12;

LAND O LAKES   LGT RAIN  38  38 100 CALM      29.17F VSB 3/4
6HR MIN TEMP:  37; 6HR MAX TEMP:  44; 6HR PCP:  0.08;

PHILLIPS       DRIZZLE   40  40 100 N3        29.16F
6HR MIN TEMP:  38; 6HR MAX TEMP:  42; 6HR PCP:  0.04;

TOMAHAWK       RAIN      37  37  97 CALM      29.16F VSB 1/4
6HR MIN TEMP:  37; 6HR MAX TEMP:  42; 6HR PCP:  0.10;

MEDFORD        LGT RAIN  40  40 100 CALM      29.14F VSB 1/2
6HR MIN TEMP:  40; 6HR MAX TEMP:  44; 6HR PCP:  0.13;

MERRILL        DRZL/FOG  40  40 100 NE3       29.15F VSB 1/2
6HR MIN TEMP:  40; 6HR MAX TEMP:  44;

$$

WIZ029-030-035-036-043>047-240700-
CENTRAL WISCONSIN

CITY           SKY/WX    TMP DP  RH WIND       PRES   REMARKS
WAUSAU         LGT RAIN  41  41 100 CALM      29.12F VSB 1/2
6HR MIN TEMP:  41; 6HR MAX TEMP:  44; 6HR PCP:  0.04;

MOSINEE        DRZL/FOG  41  41 100 NE3       29.16F VSB 1/2
MARSHFIELD     FOG       43  42  97 E3        29.14F VSB 1/4
6HR MIN TEMP:  43; 6HR MAX TEMP:  46; 6HR PCP: TRACE;

STEVENS POINT  LGT RAIN  41  41 100 CALM      29.14F VSB 3/4
6HR MIN TEMP:  41; 6HR MAX TEMP:  44; 6HR PCP:  0.01;

WAUPACA        RAIN      44  43  96 NW3       29.13F VSB 3/4
6HR MIN TEMP:  44; 6HR MAX TEMP:  47; 6HR PCP:  0.06;

WAUTOMA        LGT RAIN  44  44 100 CALM      29.13F VSB 1/2
6HR MIN TEMP:  44; 6HR MAX TEMP:  47; 6HR PCP: TRACE;

WISC RAPIDS    LGT RAIN  43  41  93 CALM      29.15F VSB 3/4
6HR MIN TEMP:  43; 6HR MAX TEMP:  47; 6HR PCP:  0.05;

CAMP DOUGLAS   FOG       45  45 100 W3        29.12F VSB 1
                                      6HR PCP:  0.03;

$$

WIZ011>013-019>022-031-037>040-048>050-240700-
NORTHEAST WISCONSIN

CITY           SKY/WX    TMP DP  RH WIND       PRES   REMARKS
ANTIGO         RAIN      37  37 100 N3        29.14F VSB 1/2
6HR MIN TEMP:  36; 6HR MAX TEMP:  41; 6HR PCP:  0.01;

SHAWANO        DRZL/FOG  41  40  95 CALM      29.14F VSB 1/4
6HR MIN TEMP:  40; 6HR MAX TEMP:  47; 6HR PCP:  0.11;

OCONTO         CLOUDY    41  41 100 CALM      29.13F VSB 3/4
6HR MIN TEMP:  41; 6HR MAX TEMP:  43; 6HR PCP:  0.22;

STURGEON BAY   CLOUDY    45  43  93 NE3       29.11F VSB 1/2
6HR MIN TEMP:  45; 6HR MAX TEMP:  46;

GREEN BAY      LGT RAIN  44  43  96 N3        29.12F VSB 1/2
6HR MIN TEMP:  42; 6HR MAX TEMP:  46; 6HR PCP:  0.17;

MANITOWOC      LGT RAIN  43  43 100 N3        29.11F VSB 3/4
6HR MIN TEMP:  42; 6HR MAX TEMP:  46; 6HR PCP:  0.39;

APPLETON       DRZL/FOG  43  43 100 NW6       29.13F VSB 1/2
CLINTONVILLE   LGT RAIN  41  41 100 N3        29.13F VSB 1/2
OSHKOSH        LGT RAIN  44  42  93 NW5       29.11F VSB 3/4
6HR MIN TEMP:  43; 6HR MAX TEMP:  47; 6HR PCP:  0.17;

$$

WIZ032>034-041-042-053>061-240700-
SOUTHWEST WISCONSIN

CITY           SKY/WX    TMP DP  RH WIND       PRES   REMARKS
LA CROSSE      LGT RAIN  40  39  97 NW13      29.19F FOG     WCI  32
6HR MIN TEMP:  40; 6HR MAX TEMP:  48; 6HR PCP:  0.09;

SPARTA         DRIZZLE   43  43 100 NW10      29.17F
6HR MIN TEMP:  43; 6HR MAX TEMP:  47; 6HR PCP:  0.08;

VIROQUA        CLOUDY    40  40 100 NW15      29.15F WCI  31
6HR MIN TEMP:  40; 6HR MAX TEMP:  46; 6HR PCP:  0.01;

BOSCOBEL       CLOUDY    46  44  93 W9        29.15F FOG
6HR MIN TEMP:  46; 6HR MAX TEMP:  48; 6HR PCP: TRACE;

PRAIRIE DU CHI CLOUDY    41  40  96 NW13G18   29.18S
6HR MIN TEMP:  41; 6HR MAX TEMP:  47; 6HR PCP:  0.03;

PLATTEVILLE    CLOUDY    45  44  97 W5        29.14F VSB 1/4
6HR MIN TEMP:  44; 6HR MAX TEMP:  47;

$$

WIZ056-057-062-063-064-067-068-240700-
SOUTH CENTRAL WISCONSIN

CITY           SKY/WX    TMP DP  RH WIND       PRES   REMARKS
REEDSBURG      FOG       44  44 100 CALM      29.12F VSB 1/2
6HR MIN TEMP:  44; 6HR MAX TEMP:  47; 6HR PCP:  0.10;

BARABOO/DELLS  DRZL/FOG  44  43  96 CALM      29.11F VSB 1/4
6HR MIN TEMP:  44; 6HR MAX TEMP:  46; 6HR PCP:  0.09;

LONE ROCK      CLOUDY    49  45  86 W5        29.13F FOG
6HR MIN TEMP:  48; 6HR MAX TEMP:  51; 6HR PCP:  0.01;

MINERAL POINT  FOG       45  45 100 CALM      29.12F VSB 1/4
MADISON        FOG       46  45  96 NW3       29.10F VSB 1/4
6HR MIN TEMP:  45; 6HR MAX TEMP:  48; 6HR PCP:  0.17;

MIDDLETON      CLOUDY    46  46 100 CALM      29.11F VSB 1/4
6HR MIN TEMP:  45; 6HR MAX TEMP:  48; 6HR PCP:  0.10;

WATERTOWN      DRIZZLE   45  45 100 CALM      29.09F
6HR MIN TEMP:  45; 6HR MAX TEMP:  47; 6HR PCP:  0.02;

MONROE         FOG       45  45 100 W3        29.10F VSB 1/2
JANESVILLE     DRZL/FOG  46  45  93 CALM      29.11F VSB 1/2
$$

WIZ051-052-058>065-066-070>072-240700-
SOUTHEAST WISCONSIN

CITY           SKY/WX    TMP DP  RH WIND       PRES   REMARKS
MILWAUKEE      LGT RAIN  46  44  93 N3        29.08F VSB 1/4
6HR MIN TEMP:  46; 6HR MAX TEMP:  48; 6HR PCP:  0.47;

WAUKESHA       LGT RAIN  43  43 100 CALM      29.09F VSB 3/4
MILWAUKEE/TIMM DRZL/FOG  45  43  93 N3        29.09F VSB 1
RACINE         LGT RAIN  46  45  96 CALM      29.10F FOG
6HR MIN TEMP:  46; 6HR MAX TEMP:  47; 6HR PCP:  0.57;

BURLINGTON     LGT RAIN  43  43 100 NW3       29.09F VSB 3/4
6HR MIN TEMP:  43; 6HR MAX TEMP:  45; 6HR PCP:  0.24;

KENOSHA        LGT RAIN  46  45  96 CALM      29.08F VSB 1/2
6HR MIN TEMP:  46; 6HR MAX TEMP:  48; 6HR PCP:  0.51;

FOND DU LAC    LGT RAIN  44  42  93 N5        29.09F VSB 1/2
6HR MIN TEMP:  43; 6HR MAX TEMP:  47; 6HR PCP:  0.20;

SHEBOYGAN      LGT RAIN  43  42  97 MISG      29.10F VSB 1
6HR MIN TEMP:  43; 6HR MAX TEMP:  46; 6HR PCP:  0.37;

WEST BEND      LGT RAIN  43  41  93 CALM      29.09F
JUNEAU         RAIN      43  43  99 N3        29.11F VSB 1/4
6HR MIN TEMP:  43; 6HR MAX TEMP:  46; 6HR PCP:  0.22;

$$

LSZ147-162-240700-
LAKE SUPERIOR

STATION/POSITION TIME  TEMP    WIND        PRES    WAVE
                       AIR SEA DIR/SP/G            HT/PER
                 (UTC) (F)     (DEG/KT/KT) (MB)    (FT/S)
DEVILS ISLAND    0600   39     340/ 12/ 14  990.8F
PORT WING        0540   37     330/ 10/ 11  991.9F
SAXON HARBOR     0500   38     320/  7/  7  991.2
$$

LMZ867-665-643>646-240700-
LAKE MICHIGAN

STATION/POSITION TIME  TEMP    WIND        PRES    WAVE
                       AIR SEA DIR/SP/G            HT/PER


USA.gov is the U.S. government's official web portal to all federal, state and local government web resources and services.